Temperature
22 22 21 21 21 20 20 19 19 18 18 18 17 17 17 16 16 16 16 15 15 15 15 15 15 15 15 15 15 15 15 15 16 16 16 16 16 16 16 16 16 16 16
22 22 21 21 21 20 20 19 19 18 18 18 17 17 17 16 16 16 16 15 16 15 15 15 15 15 15 15 15 15 15 15 15 16 16 16 16 16 16 16 16 16 16
22 21 21 21 20 20 20 19 19 18 18 18 17 17 17 17 16 16 16 16 15 15 15 15 15 15 15 15 15 15 15 15 15 15 15 15 15 16 16 16 16 16 16
22 22 21 21 20 20 20 19 19 18 18 18 17 17 17 17 16 16 16 16 15 15 15 15 15 15 15 15 15 15 15 15 15 15 15 15 15 15 15 15 16 16 15
22 22 21 21 20 20 20 19 19 18 18 18 17 17 17 17 16 16 16 16 15 15 15 15 15 15 15 15 15 15 15 15 15 15 15 15 15 15 15 15 15 15 15
22 22 21 20 20 20 19 19 19 18 18 18 17 17 17 17 16 16 16 16 15 15 15 15 15 15 15 15 14 14 15 15 15 15 15 15 15 15 15 15 15 15 15
22 21 21 20 20 19 19 19 19 18 18 18 17 17 17 17 16 16 16 16 15 15 15 15 15 15 15 15 14 14 14 14 14 14 14 14 14 14 14 15 15 15 15
22 21 21 20 20 19 19 19 18 18 18 18 17 17 17 17 16 16 16 16 16 15 15 15 15 15 15 14 14 14 14 14 14 14 14 14 14 14 14 14 14 14 14
22 21 21 20 20 19 19 19 19 18 18 18 17 17 17 17 17 16 16 16 16 15 15 15 15 15 15 14 14 14 14 14 14 14 14 14 14 14 14 14 14 14 14
22 21 20 20 19 19 19 19 18 18 18 18 17 17 17 17 17 16 16 16 16 15 15 15 15 15 15 14 14 14 14 14 14 14 14 14 14 14 14 14 14 14 14
22 21 20 20 19 19 19 19 18 18 18 18 17 17 17 17 17 16 16 16 16 15 15 15 15 15 14 14 14 14 14 14 13 13 13 13 13 13 13 13 13 13 13
22 21 20 20 19 19 19 18 18 18 18 18 18 17 17 17 17 16 16 16 16 15 15 15 15 14 14 14 14 14 14 14 13 13 13 13 13 13 13 13 13 13 13
22 21 20 20 19 19 19 19 18 18 18 18 18 17 17 17 17 16 16 16 15 15 15 15 14 14 14 14 14 14 14 13 13 13 13 13 13 13 13 13 13 13 12
22 21 20 20 19 19 19 19 18 18 18 18 17 17 17 17 16 16 16 16 15 15 15 15 14 14 14 14 14 14 13 13 13 13 13 13 13 13 13 12 12 12 12
22 21 20 20 19 19 19 18 18 18 18 18 17 17 17 17 16 16 16 15 15 15 14 14 14 14 14 14 14 13 13 13 13 13 13 13 13 12 12 12 12 12 12
22 21 20 20 19 19 19 19 18 18 18 18 17 17 17 17 16 16 16 15 15 15 14 14 14 14 14 14 13 13 13 13 12 12 12 12 12 12 12 12 11 11 11
22 21 21 20 19 19 19 19 18 18 18 17 17 17 17 16 16 16 15 15 15 15 14 14 14 14 13 13 13 13 13 12 12 12 12 11 12 12 12 11 11 11 11
22 22 21 20 20 20 19 19 18 18 18 17 17 17 17 16 16 16 15 15 14 14 14 14 13 13 13 13 13 13 13 12 12 12 12 11 11 11 11 11 11 11 10
22 22 21 21 20 20 19 18 18 18 17 17 17 17 16 16 16 16 15 15 14 14 14 13 13 13 13 13 13 13 12 12 12 11 11 11 11 11 11 11 11 11 10
22 22 21 21 20 20 19 18 18 18 17 17 17 17 16 16 16 15 15 14 14 14 13 13 13 13 13 12 12 12 12 12 11 11 11 11 11 10 10 10 10 10 10
22 21 21 20 20 19 19 18 18 17 17 17 17 16 16 16 16 15 15 14 14 13 13 13 13 12 12 12 12 12 12 11 11 11 11 10 10 10 10 10 10 10 9
21 21 20 20 20 19 19 18 18 17 17 17 17 16 16 16 15 15 14 14 14 13 13 12 12 12 12 12 12 11 11 11 11 11 10 10 10 10 10 10 10 9 9
21 20 20 20 19 19 18 18 18 17 17 17 16 16 16 15 15 15 14 14 13 13 13 12 12 12 12 11 11 11 11 11 10 10 10 10 10 10 10 9 9 9 9
20 20 19 19 19 18 18 18 17 17 17 17 16 16 15 15 15 14 14 14 13 13 12 12 12 12 11 11 11 11 10 10 10 10 10 10 9 9 9 9 9 8 8
19 19 19 18 18 18 17 17 17 17 16 16 16 15 15 15 14 14 14 14 13 13 13 12 12 12 11 11 11 10 10 10 10 9 9 9 9 9 9 8 8 8 7
19 19 18 18 18 17 17 17 16 16 16 16 15 15 14 14 14 14 13 13 13 12 12 12 12 11 11 11 10 10 10 9 9 9 9 9 8 8 8 8 8 7 7
Wind_Speed
10 9 9 8 7 8 9 8 6 6 5 3 3 3 3 4 4 5 7 9 10 10 7 5 5 5 5 5 6 5 6 5 4 3 3 4 5 5 5 4 4 5 7
11 10 9 7 7 7 7 8 7 6 6 3 3 3 3 4 4 3 6 9 10 10 8 5 4 4 5 6 6 5 5 4 5 3 2 3 5 5 5 5 5 5 6
13 11 10 8 7 7 6 7 7 7 6 4 3 4 3 2 3 4 3 5 8 9 9 7 5 4 5 5 6 6 6 5 5 6 4 3 2 2 4 5 5 5 5
11 10 9 9 8 7 6 7 6 7 6 5 4 3 3 3 3 3 2 4 7 7 7 7 6 5 5 6 6 7 5 5 5 4 5 4 2 2 2 4 5 6 6
12 11 9 9 8 7 6 6 7 7 6 6 4 3 4 3 3 3 3 4 4 5 6 7 7 5 4 5 6 6 6 5 5 4 4 5 5 5 3 2 3 4 4
12 11 10 9 8 7 6 7 8 7 5 5 4 3 5 5 4 3 2 3 3 3 4 5 5 5 4 5 5 5 6 5 6 6 5 5 4 4 3 2 2 2 2
12 12 11 10 9 8 7 7 8 7 5 4 4 4 4 4 3 3 2 2 3 2 3 4 4 4 5 5 5 5 5 5 6 6 5 5 5 4 4 3 2 2 1
12 12 12 11 10 9 8 8 8 7 5 4 4 5 4 2 3 2 2 3 3 3 3 3 4 5 5 5 5 4 5 6 6 6 5 4 5 5 4 3 3 3 3
11 12 12 11 11 10 9 8 9 8 6 5 4 5 5 3 3 2 3 3 3 3 3 3 3 4 5 5 5 4 5 6 6 6 6 5 4 5 5 4 4 3 3
13 12 11 11 11 10 9 9 9 8 7 5 5 5 4 4 4 3 4 4 4 3 2 2 3 3 4 4 4 4 4 4 4 3 5 5 4 4 5 4 4 4 2
13 12 11 11 11 10 10 9 9 8 7 6 5 6 4 4 4 4 3 3 3 2 2 3 3 4 4 4 4 3 5 5 4 5 5 5 5 4 5 4 4 4 4
12 12 12 11 10 10 10 10 9 8 7 6 6 6 5 4 4 4 3 2 3 2 2 3 4 5 5 4 4 4 4 4 5 5 5 5 5 5 5 4 5 4 4
13 12 12 11 11 10 10 9 9 8 8 6 6 6 6 5 4 4 3 2 3 3 3 4 5 5 5 5 4 3 4 4 4 5 5 6 6 6 5 5 5 4 5
13 13 12 12 11 10 10 9 9 9 8 7 7 6 6 6 5 4 3 3 3 3 3 4 4 5 5 5 5 5 4 4 4 4 5 5 6 6 6 5 6 5 5
13 14 13 12 12 11 11 10 9 9 9 8 7 6 6 6 5 5 4 3 3 3 3 4 4 5 4 5 6 5 4 4 4 3 3 4 6 7 5 4 4 5 4
13 13 14 13 13 13 12 11 10 10 10 9 8 7 7 7 6 5 4 3 3 3 4 4 5 4 4 7 9 7 5 4 3 3 3 3 4 4 4 5 4 4 3
12 13 13 13 13 13 13 12 12 10 10 10 8 8 7 7 6 6 5 4 3 3 3 3 4 4 4 5 6 7 5 3 3 3 4 4 4 5 4 5 5 4 5
12 12 12 12 12 12 11 11 11 11 10 10 9 9 8 8 6 6 5 4 3 3 2 2 3 3 3 3 3 5 3 3 2 2 2 2 3 5 5 5 5 4 4
10 10 11 11 11 12 12 12 12 11 10 10 10 10 9 8 7 6 5 4 3 3 3 2 2 2 2 2 2 2 2 2 2 1 2 2 3 5 6 5 5 5 6
8 9 9 10 11 11 12 13 12 11 11 10 10 10 9 9 8 7 5 4 3 3 3 3 2 2 2 4 2 1 1 2 2 1 2 3 3 3 4 3 4 5 6
8 8 9 9 10 11 12 12 12 11 10 10 10 9 9 9 8 6 5 5 4 4 3 3 2 3 3 5 4 2 0 2 3 2 1 1 2 3 4 4 3 6 7
8 8 8 8 8 11 12 11 10 10 10 10 10 9 9 9 8 7 6 5 5 5 4 3 3 2 3 5 4 4 3 2 1 2 2 1 4 6 7 6 8 11 9
7 7 7 7 7 9 10 11 10 11 12 11 10 9 9 8 8 7 6 5 5 5 4 4 3 3 3 4 6 6 5 5 3 3 4 6 7 8 7 9 11 9 5
6 6 7 8 7 8 8 8 9 11 12 12 10 9 9 8 8 7 6 5 5 5 4 4 4 3 2 2 3 3 4 5 4 4 5 7 9 9 9 9 7 5 5
6 6 7 7 7 8 8 8 10 11 11 11 10 9 8 8 7 7 6 6 5 6 6 4 4 4 3 4 4 3 3 2 2 2 3 4 4 4 4 4 4 4 3
6 6 6 6 8 8 8 9 10 10 11 10 10 8 7 7 7 6 5 5 6 8 9 7 6 4 6 6 6 5 5 5 4 2 3 4 5 5 5 5 4 4 4
Wind_Direction
146 134 129 129 130 125 121 123 126 109 93 68 71 75 71 68 60 61 43 33 34 25 29 29 33 38 38 23 25 15 10 11 9 30 31 44 52 50 54 47 54 54 55
144 140 141 139 133 122 124 128 118 105 97 83 91 96 86 86 85 62 46 44 39 26 31 33 26 38 37 26 28 23 16 10 23 31 38 28 20 17 41 46 52 44 46
151 153 149 140 131 128 125 117 117 112 105 100 79 75 73 73 79 75 55 49 50 38 26 24 30 36 46 32 30 25 28 17 16 34 49 62 28 349 9 33 46 36 38
151 149 150 145 140 131 125 124 117 109 106 102 87 94 94 88 81 83 83 75 62 50 27 25 34 43 42 38 33 31 20 29 20 17 28 46 73 61 19 11 29 36 42
153 153 152 144 138 130 126 118 112 106 107 104 92 72 71 80 76 81 78 83 68 57 36 35 37 41 40 43 42 35 30 28 25 28 21 16 20 35 62 29 12 22 32
153 154 146 137 129 125 122 115 113 108 109 113 119 106 90 87 80 77 65 84 81 57 44 46 43 44 42 38 33 43 45 37 31 31 32 35 34 18 29 34 27 30 22
162 158 150 145 141 140 139 133 130 129 132 137 135 120 105 104 96 93 85 83 84 73 54 52 46 45 48 43 29 32 41 45 47 43 30 28 29 28 27 29 13 21 12
167 159 155 150 151 152 153 150 144 141 147 155 141 122 115 106 95 82 90 82 87 87 81 66 65 54 47 46 41 29 36 39 38 44 40 36 24 24 32 31 22 19 16
163 157 155 155 156 159 159 156 153 152 156 163 136 117 111 100 98 87 80 74 79 77 76 86 86 77 58 44 42 40 43 43 34 36 33 35 27 23 24 25 34 47 26
164 159 158 160 161 161 162 164 160 156 157 160 144 127 127 114 101 82 69 66 66 58 59 75 85 82 75 61 54 43 40 52 50 56 48 35 28 24 22 19 24 33 46
163 160 159 159 155 156 160 163 160 156 158 159 141 130 129 124 115 98 87 76 77 75 65 61 65 70 76 75 66 47 45 38 34 45 60 50 35 28 22 19 27 25 32
160 157 156 155 155 161 166 166 164 157 155 152 137 134 137 132 125 116 111 104 84 72 64 68 63 61 56 60 68 58 58 52 41 36 44 44 42 33 22 24 24 20 23
158 157 158 160 163 166 167 165 160 154 150 148 148 145 142 139 135 126 120 109 92 82 64 69 69 64 56 53 49 54 61 62 57 50 45 39 39 30 21 26 24 15 15
162 161 163 165 166 168 167 164 157 152 152 152 155 156 150 143 134 119 114 103 95 89 77 72 73 67 57 47 33 30 42 53 61 64 61 52 50 36 19 24 18 15 10
167 166 169 168 168 170 169 164 158 157 159 158 162 163 146 135 125 117 114 96 86 87 82 78 73 71 67 48 35 20 24 36 41 56 80 79 70 54 35 22 11 12 7
175 172 173 171 175 176 173 165 163 164 163 165 164 148 139 133 133 134 131 114 94 79 71 72 76 69 63 57 45 27 7 10 21 24 49 84 71 50 15 358 360 4 3
177 176 178 176 180 181 175 167 167 165 167 163 153 146 145 142 143 141 126 124 120 100 90 88 90 90 79 69 41 19 0 353 13 19 21 34 51 45 21 350 339 328 323
178 177 179 176 178 176 167 163 163 167 166 160 153 152 149 146 144 139 144 153 142 128 127 120 118 115 110 85 43 8 344 331 2 18 30 49 49 40 29 5 356 341 329
176 176 178 173 174 171 165 163 167 168 165 162 159 158 155 153 151 153 159 158 145 144 151 157 152 141 141 136 89 13 322 316 327 354 39 56 69 45 34 16 344 332 324
164 167 168 168 171 167 161 164 169 169 168 163 160 158 155 154 158 161 159 151 148 154 162 166 174 166 151 152 129 38 317 320 328 6 51 61 73 45 30 9 335 320 312
151 154 160 166 167 161 160 168 172 173 163 155 153 153 152 156 157 157 156 156 159 165 179 179 188 183 163 159 155 140 135 321 330 352 5 2 9 355 336 323 291 285 297
145 152 158 160 159 159 163 171 171 161 150 149 150 153 155 162 162 157 165 170 167 174 189 195 205 199 173 166 179 184 203 260 313 310 316 316 323 318 308 297 286 290 299
151 154 156 157 158 162 167 172 162 150 150 151 155 158 160 162 159 163 172 175 177 184 197 198 201 207 188 182 189 201 220 239 244 262 277 290 298 301 293 279 281 286 279
154 157 159 164 168 168 168 164 153 152 154 159 164 166 168 169 170 173 179 181 188 193 197 201 205 204 195 186 188 207 227 242 254 268 282 290 287 280 277 279 277 263 254
162 165 171 174 174 169 168 160 157 158 163 167 171 174 175 174 176 178 184 190 194 191 192 202 201 198 208 210 189 190 211 222 240 278 284 282 282 280 279 281 279 275 277
161 169 174 175 177 176 175 167 164 167 171 175 178 179 176 175 176 176 184 194 192 188 191 194 197 206 203 201 205 212 224 239 249 252 258 265 267 270 275 278 282 281 279
Height
1544 1547 1549 1551 1553 1555 1556 1557 1558 1559 1560 1560 1560 1561 1560 1560 1559 1559 1558 1557 1556 1556 1555 1554 1553 1551 1550 1549 1549 1548 1548 1547 1547 1547 1547 1548 1548 1548 1548 1548 1548 1548 1548
1543 1546 1549 1552 1553 1555 1556 1557 1559 1560 1560 1561 1561 1561 1561 1561 1561 1560 1560 1559 1558 1557 1556 1555 1555 1553 1552 1551 1551 1550 1549 1549 1549 1549 1548 1549 1551 1550 1551 1550 1550 1550 1550
1542 1546 1549 1551 1553 1555 1557 1558 1559 1560 1561 1561 1562 1562 1562 1562 1562 1562 1561 1560 1559 1558 1558 1557 1557 1556 1554 1554 1553 1552 1551 1551 1551 1551 1551 1551 1552 1552 1553 1553 1552 1552 1551
1540 1544 1548 1550 1553 1555 1557 1558 1559 1560 1561 1562 1562 1563 1563 1563 1564 1563 1563 1562 1561 1560 1560 1559 1559 1557 1556 1556 1555 1554 1554 1553 1553 1553 1553 1554 1554 1554 1554 1555 1554 1554 1553
1539 1543 1546 1549 1552 1554 1556 1558 1559 1560 1561 1562 1563 1563 1564 1564 1564 1564 1564 1564 1563 1562 1562 1561 1560 1559 1558 1558 1557 1556 1556 1555 1555 1555 1555 1555 1555 1555 1555 1556 1556 1555 1555
1537 1541 1545 1548 1550 1553 1555 1557 1558 1559 1561 1562 1563 1564 1564 1565 1565 1565 1565 1565 1564 1564 1563 1563 1562 1561 1560 1560 1559 1559 1558 1557 1557 1557 1557 1557 1556 1557 1557 1557 1557 1556 1557
1535 1539 1543 1546 1548 1551 1554 1556 1557 1559 1561 1562 1563 1564 1565 1565 1565 1566 1566 1566 1565 1565 1564 1564 1563 1563 1562 1562 1561 1561 1560 1560 1559 1559 1558 1558 1558 1559 1558 1558 1558 1557 1558
1533 1537 1540 1543 1546 1550 1552 1555 1556 1558 1560 1562 1564 1564 1565 1566 1566 1566 1567 1567 1566 1566 1566 1565 1565 1564 1564 1563 1563 1562 1562 1561 1561 1560 1560 1560 1560 1560 1559 1559 1559 1558 1559
1530 1534 1538 1541 1545 1548 1551 1553 1555 1558 1560 1562 1563 1564 1565 1566 1566 1567 1567 1567 1567 1567 1567 1566 1566 1565 1565 1565 1564 1564 1563 1563 1562 1562 1561 1561 1561 1561 1560 1560 1560 1560 1559
1528 1532 1536 1539 1543 1546 1549 1552 1555 1557 1559 1561 1563 1564 1565 1566 1566 1567 1567 1568 1568 1567 1568 1567 1567 1566 1566 1565 1565 1565 1564 1564 1563 1563 1562 1562 1562 1561 1561 1561 1561 1560 1560
1525 1529 1533 1537 1541 1544 1547 1551 1553 1556 1558 1560 1562 1563 1564 1565 1566 1567 1567 1568 1568 1568 1568 1568 1568 1567 1567 1566 1566 1566 1565 1565 1565 1564 1564 1563 1563 1562 1562 1561 1561 1561 1560
1522 1527 1531 1535 1539 1542 1545 1548 1551 1554 1556 1558 1560 1562 1563 1564 1565 1566 1567 1567 1568 1568 1568 1568 1568 1567 1567 1567 1567 1566 1566 1566 1565 1565 1565 1564 1564 1563 1562 1562 1561 1561 1560
1520 1525 1529 1532 1536 1540 1543 1546 1549 1552 1554 1557 1559 1560 1562 1563 1564 1565 1566 1567 1567 1567 1568 1568 1567 1567 1567 1567 1567 1567 1567 1566 1566 1566 1565 1564 1564 1563 1562 1562 1561 1560 1560
1517 1522 1526 1530 1534 1537 1541 1544 1547 1549 1552 1554 1557 1559 1560 1562 1563 1564 1565 1566 1566 1567 1567 1567 1567 1567 1567 1567 1567 1567 1567 1567 1566 1566 1565 1565 1564 1563 1562 1562 1561 1560 1559
1514 1518 1522 1526 1530 1534 1538 1541 1544 1547 1549 1552 1554 1556 1558 1560 1561 1562 1564 1565 1565 1566 1566 1566 1567 1567 1567 1567 1567 1567 1567 1567 1566 1566 1565 1565 1564 1563 1562 1561 1560 1559 1558
1511 1515 1519 1523 1527 1530 1534 1537 1540 1544 1546 1549 1551 1554 1556 1557 1559 1560 1562 1563 1564 1564 1565 1565 1566 1566 1566 1566 1566 1566 1566 1566 1566 1565 1565 1564 1563 1562 1561 1560 1559 1559 1557
1507 1511 1516 1519 1523 1527 1530 1533 1537 1540 1544 1546 1549 1551 1553 1555 1557 1558 1560 1561 1562 1563 1563 1564 1564 1565 1565 1565 1565 1565 1565 1564 1564 1564 1564 1563 1562 1561 1560 1559 1558 1558 1556
1504 1508 1512 1516 1520 1524 1528 1531 1534 1537 1540 1543 1545 1548 1550 1552 1554 1556 1558 1559 1560 1561 1562 1562 1563 1563 1563 1563 1563 1563 1563 1563 1563 1563 1562 1562 1561 1560 1559 1558 1557 1556 1555
1501 1504 1508 1513 1517 1521 1524 1527 1531 1534 1537 1540 1542 1545 1547 1549 1552 1553 1555 1556 1558 1559 1559 1560 1561 1561 1561 1562 1562 1562 1561 1561 1561 1561 1561 1560 1559 1558 1557 1556 1554 1553 1552
1498 1502 1506 1510 1513 1517 1521 1524 1527 1530 1533 1536 1539 1542 1544 1547 1549 1551 1552 1554 1555 1556 1557 1558 1559 1559 1559 1560 1560 1560 1559 1559 1559 1559 1558 1558 1557 1556 1554 1553 1552 1550 1549
1496 1499 1503 1507 1510 1514 1517 1520 1524 1527 1530 1534 1537 1539 1542 1544 1546 1548 1550 1551 1553 1554 1555 1556 1556 1557 1557 1557 1557 1557 1557 1557 1556 1556 1555 1555 1554 1553 1552 1550 1549 1547 1545
1493 1497 1500 1504 1507 1511 1514 1517 1520 1524 1527 1531 1534 1536 1539 1541 1543 1545 1547 1548 1550 1551 1552 1553 1553 1554 1555 1555 1555 1555 1554 1554 1553 1553 1552 1551 1551 1550 1548 1547 1545 1544 1542
1492 1495 1498 1501 1505 1508 1511 1514 1518 1521 1524 1527 1530 1533 1535 1538 1540 1542 1544 1545 1546 1547 1548 1549 1550 1551 1551 1552 1552 1551 1551 1551 1550 1550 1549 1548 1547 1546 1544 1543 1541 1540 1538
1491 1493 1496 1499 1502 1505 1508 1512 1515 1518 1521 1524 1526 1529 1532 1534 1536 1538 1540 1541 1543 1544 1545 1546 1547 1547 1548 1548 1548 1548 1547 1547 1546 1546 1545 1544 1543 1542 1540 1539 1537 1536 1535
1490 1492 1494 1496 1499 1503 1506 1509 1512 1514 1517 1520 1523 1525 1528 1530 1532 1534 1536 1537 1539 1540 1541 1542 1543 1544 1544 1544 1544 1544 1544 1543 1543 1541 1540 1539 1538 1537 1536 1534 1533 1532 1531
1488 1490 1492 1494 1497 1500 1503 1505 1508 1510 1513 1516 1518 1521 1523 1526 1528 1530 1532 1533 1535 1536 1537 1538 1539 1539 1540 1540 1540 1540 1540 1539 1538 1537 1535 1534 1533 1532 1531 1530 1528 1527 1526